Grangeville, ID

10:00 PM PST on February 20, 2017 (GMT -0800)
Idaho Cnty AP, Grangeville, I

Weather History for KGIC - January, 2014

Change the Weather History Date:

Friday, January 3, 2014

  Actual Average (KP69) Record (KP69)
Temperature  
Mean Temperature 37 °F -  
Max Temperature 46 °F 35 °F 45 °F (2003)
Min Temperature 28 °F 27 °F 10 °F (2017)
Degree Days  
Heating Degree Days 28    
Moisture  
Dew Point 26 °F    
Average Humidity 65    
Maximum Humidity 82    
Minimum Humidity 50    
Precipitation  
Precipitation 0.00 in - - ()
Sea Level Pressure  
Sea Level Pressure 29.98 in    
Wind  
Wind Speed 18 mph (WSW)    
Max Wind Speed 37 mph    
Max Gust Speed 50 mph    
Visibility 10 miles    
Events      
Averages and records for this station are not official NWS values.
T = Trace of Precipitation, MM = Missing Value Source: NWS Daily Summary

Daily Weather History Graph

Daily Weather History Graph

Search for Another Location

Airport or City:

Trip Planner

Search our weather history database for the weather conditions in past years. The results will help you decide how hot, cold, wet, or windy it might be!

Date:

Astronomy

Jan. 03, 2014 Rise Set
Actual Time 7:26 AM PST 4:12 PM PST
Civil Twilight 6:51 AM PST 4:46 PM PST
Nautical Twilight 6:14 AM PST 5:24 PM PST
Astronomical Twilight 5:38 AM PST 6:00 PM PST
Moon 8:45 AM PST (1/3) 7:38 PM PST (1/3)
Length of Visible Light 9h 54m
Length of Day
8h 46m
Waxing Crescent, 8% of the Moon is Illuminated
Jan 3
Waxing Crescent
Jan 7
First Quarter
Jan 15
Full
Jan 23
Last Quarter
Jan 30
New

Hourly Weather History & Observations

Time (PST) Temp. Windchill Dew Point Humidity Pressure Visibility Wind Dir Wind Speed Gust Speed Precip Events Conditions
12:15 AM 46.0 °F 37.2 °F 30.0 °F 54% 29.82 in 10.0 mi SSW 26.5 mph 39.1 mph N/A   Scattered Clouds
12:35 AM 46.0 °F 36.2 °F 29.8 °F 53% 29.81 in 10.0 mi SSW 33.4 mph 44.9 mph N/A   Mostly Cloudy
12:55 AM 45.7 °F 35.3 °F 29.7 °F 54% 29.79 in 10.0 mi SSW 36.8 mph 49.5 mph N/A   Mostly Cloudy
1:15 AM 45.5 °F 35.2 °F 29.5 °F 54% 29.78 in 10.0 mi SSW 35.7 mph 47.2 mph N/A   Overcast
1:35 AM 45.5 °F 35.6 °F 29.5 °F 54% 29.79 in 10.0 mi SSW 32.2 mph 49.5 mph N/A   Overcast
1:55 AM 45.3 °F 36.9 °F 29.5 °F 54% 29.82 in 10.0 mi SW 23.0 mph 44.9 mph N/A   Overcast
2:15 AM 44.4 °F 35.3 °F 30.0 °F 57% 29.82 in 10.0 mi SSW 25.3 mph 33.4 mph N/A   Overcast
2:35 AM 43.9 °F 35.4 °F 30.7 °F 60% 29.84 in 10.0 mi SW 20.7 mph 31.1 mph N/A   Overcast
2:55 AM 43.0 °F 35.4 °F 30.9 °F 62% 29.84 in 10.0 mi SW 16.1 mph 26.5 mph N/A   Overcast
3:15 AM 42.1 °F 34.2 °F 31.1 °F 65% 29.86 in 10.0 mi SW 16.1 mph 27.6 mph N/A   Overcast
3:35 AM 41.5 °F 33.5 °F 31.1 °F 66% 29.86 in 10.0 mi SW 16.1 mph 21.9 mph N/A   Overcast
3:55 AM 41.9 °F 33.4 °F 31.8 °F 67% 29.88 in 10.0 mi WSW 18.4 mph 28.8 mph N/A   Overcast
4:15 AM 41.5 °F 32.4 °F 33.3 °F 72% 29.89 in 7.0 mi WSW 20.7 mph 32.2 mph N/A   Overcast
4:35 AM 40.1 °F 30.7 °F 34.3 °F 80% 29.88 in 5.0 mi SW 19.6 mph 24.2 mph N/A   Overcast
4:55 AM 39.4 °F 29.5 °F 34.3 °F 82% 29.90 in 10.0 mi WSW 20.7 mph 28.8 mph N/A   Overcast
5:15 AM 39.4 °F 30.4 °F 33.4 °F 79% 29.91 in 10.0 mi WSW 17.3 mph 23.0 mph N/A   Overcast
5:35 AM 39.6 °F 30.3 °F 32.9 °F 77% 29.90 in 10.0 mi WSW 18.4 mph - N/A   Overcast
6:00 AM 40.3 °F 34.4 °F 32.0 °F 72% 29.92 in 10.0 mi West 9.2 mph 33.4 mph N/A   Overcast
6:15 AM 39.9 °F 33.4 °F 32.0 °F 73% 29.93 in 10.0 mi West 10.4 mph 19.6 mph N/A   Overcast
6:35 AM 38.5 °F 32.7 °F 32.4 °F 79% 29.92 in 10.0 mi West 8.1 mph - N/A   Overcast
6:55 AM 38.3 °F 29.7 °F 32.0 °F 78% 29.93 in 10.0 mi WSW 15.0 mph 23.0 mph N/A   Overcast
7:15 AM 38.3 °F 30.5 °F 30.9 °F 75% 29.94 in 10.0 mi West 12.7 mph 18.4 mph N/A   Mostly Cloudy
7:35 AM 38.5 °F 30.7 °F 29.5 °F 70% 29.95 in 10.0 mi West 12.7 mph 26.5 mph N/A   Mostly Cloudy
7:55 AM 37.9 °F 30.5 °F 28.0 °F 68% 29.96 in 10.0 mi West 11.5 mph - N/A   Mostly Cloudy
8:15 AM 37.4 °F 28.2 °F 28.0 °F 69% 29.97 in 10.0 mi WSW 16.1 mph 21.9 mph N/A   Mostly Cloudy
8:35 AM 38.1 °F 29.8 °F 28.6 °F 69% 29.97 in 10.0 mi WSW 13.8 mph 19.6 mph N/A   Overcast
8:55 AM 38.7 °F 29.5 °F 27.5 °F 64% 29.98 in 10.0 mi WSW 17.3 mph 20.7 mph N/A   Mostly Cloudy
9:15 AM 38.5 °F 31.6 °F 27.3 °F 64% 29.99 in 10.0 mi West 10.4 mph 21.9 mph N/A   Scattered Clouds
9:35 AM 39.2 °F 31.2 °F 28.6 °F 66% 30.00 in 10.0 mi WSW 13.8 mph 17.3 mph N/A   Mostly Cloudy
9:55 AM 40.5 °F 34.6 °F 27.7 °F 60% 30.00 in 10.0 mi West 9.2 mph - N/A   Overcast
10:15 AM 39.9 °F 32.9 °F 26.6 °F 59% 30.00 in 10.0 mi West 11.5 mph 16.1 mph N/A   Overcast
10:35 AM 39.4 °F 33.2 °F 25.5 °F 58% 29.99 in 10.0 mi West 9.2 mph - N/A   Overcast
10:55 AM 39.2 °F 30.5 °F 24.6 °F 56% 29.99 in 10.0 mi West 16.1 mph 25.3 mph N/A   Overcast
11:15 AM 38.8 °F 31.2 °F 23.0 °F 53% 29.98 in 10.0 mi WNW 12.7 mph 21.9 mph N/A   Mostly Cloudy
11:35 AM 40.3 °F 31.6 °F 24.6 °F 54% 29.98 in 10.0 mi WSW 17.3 mph 23.0 mph N/A   Overcast
11:55 AM 40.8 °F 32.0 °F 24.6 °F 53% 29.97 in 10.0 mi WSW 18.4 mph - N/A   Overcast
12:15 PM 40.8 °F 31.7 °F 23.9 °F 51% 29.97 in 10.0 mi West 19.6 mph 27.6 mph N/A   Overcast
12:35 PM 40.1 °F 32.7 °F 23.2 °F 51% 29.97 in 10.0 mi West 12.7 mph - N/A   Mostly Cloudy
12:55 PM 39.9 °F 30.8 °F 23.7 °F 52% 29.97 in 10.0 mi WSW 18.4 mph 26.5 mph N/A   Scattered Clouds
1:15 PM 39.9 °F 31.8 °F 22.8 °F 50% 29.97 in 10.0 mi West 15.0 mph 25.3 mph N/A   Scattered Clouds
1:35 PM 39.9 °F 31.8 °F 23.4 °F 52% 29.98 in 10.0 mi West 15.0 mph 26.5 mph N/A   Mostly Cloudy
1:55 PM 39.0 °F 31.8 °F 24.4 °F 56% 29.98 in 10.0 mi West 11.5 mph - N/A   Overcast
2:15 PM 37.9 °F 31.5 °F 24.1 °F 57% 29.99 in 10.0 mi West 9.2 mph 19.6 mph N/A   Overcast
2:35 PM 35.6 °F 29.2 °F 25.0 °F 65% 30.00 in 7.0 mi WNW 8.1 mph 16.1 mph N/A   Overcast
2:55 PM 36.0 °F 29.6 °F 24.8 °F 64% 30.00 in 10.0 mi WNW 8.1 mph - N/A   Overcast
3:15 PM 37.4 °F 30.8 °F 24.8 °F 60% 30.00 in 10.0 mi WNW 9.2 mph - N/A   Overcast
3:35 PM 37.8 °F 29.8 °F 23.0 °F 55% 30.01 in 10.0 mi NW 12.7 mph 17.3 mph N/A   Overcast
3:55 PM 36.3 °F 30.1 °F 23.0 °F 59% 30.02 in 10.0 mi WNW 8.1 mph - N/A   Overcast
4:15 PM 34.9 °F 29.9 °F 23.5 °F 63% 30.03 in 10.0 mi West 5.8 mph - N/A   Overcast
4:40 PM 33.6 °F 27.5 °F 22.1 °F 63% 30.03 in 10.0 mi NW 6.9 mph - N/A   Overcast
4:55 PM 33.6 °F 26.8 °F 21.7 °F 62% 30.04 in 10.0 mi NW 8.1 mph - N/A   Overcast
5:15 PM 33.4 °F 27.3 °F 21.7 °F 62% 30.04 in 10.0 mi North 6.9 mph - N/A   Overcast
5:35 PM 32.4 °F 26.0 °F 23.5 °F 70% 30.05 in 10.0 mi NNW 6.9 mph - N/A   Overcast
5:55 PM 32.0 °F 26.4 °F 23.9 °F 72% 30.06 in 10.0 mi WNW 5.8 mph - N/A   Overcast
6:15 PM 32.2 °F 24.4 °F 23.5 °F 70% 30.07 in 10.0 mi NNW 9.2 mph - N/A   Overcast
6:35 PM 31.8 °F 25.4 °F 24.8 °F 75% 30.07 in 10.0 mi WNW 6.9 mph - N/A   Overcast
6:55 PM 32.0 °F 24.2 °F 24.1 °F 73% 30.08 in 10.0 mi West 9.2 mph 18.4 mph N/A   Overcast
7:15 PM 32.0 °F 26.4 °F 24.1 °F 73% 30.08 in 10.0 mi West 5.8 mph - N/A   Overcast
7:35 PM 32.0 °F 27.5 °F 24.4 °F 74% 30.08 in 10.0 mi West 4.6 mph - N/A   Overcast
7:55 PM 32.0 °F 23.0 °F 23.5 °F 71% 30.08 in 10.0 mi SW 11.5 mph - N/A   Overcast
8:15 PM 32.0 °F 26.4 °F 23.0 °F 69% 30.09 in 10.0 mi SSE 5.8 mph - N/A   Overcast
8:35 PM 31.5 °F 25.8 °F 23.9 °F 74% 30.09 in 10.0 mi ESE 5.8 mph - N/A   Overcast
8:55 PM 30.9 °F - 24.1 °F 76% 30.10 in 10.0 mi Calm Calm - N/A   Scattered Clouds
9:15 PM 30.6 °F 24.7 °F 22.6 °F 72% 30.10 in 10.0 mi SSW 5.8 mph - N/A   Mostly Cloudy
9:35 PM 30.7 °F 22.6 °F 22.1 °F 70% 30.09 in 10.0 mi SSW 9.2 mph - N/A   Scattered Clouds
9:55 PM 30.6 °F 23.8 °F 21.7 °F 70% 30.09 in 10.0 mi SSW 6.9 mph - N/A   Clear
10:15 PM 29.3 °F 23.2 °F 21.7 °F 73% 30.09 in 10.0 mi SSW 5.8 mph - N/A   Clear
10:35 PM 28.4 °F 24.6 °F 21.2 °F 74% 30.11 in 10.0 mi WSW 3.5 mph - N/A   Clear
10:55 PM 28.4 °F - 21.0 °F 74% 30.11 in 10.0 mi Calm Calm - N/A   Mostly Cloudy
11:15 PM 28.4 °F 23.3 °F 21.6 °F 76% 30.12 in 10.0 mi WNW 4.6 mph - N/A   Overcast
11:35 PM 28.4 °F 20.4 °F 21.7 °F 76% 30.13 in 10.0 mi WSW 8.1 mph - N/A   Overcast
11:55 PM 30.0 °F 21.7 °F 21.6 °F 71% 30.13 in 10.0 mi SW 9.2 mph - N/A   Overcast